Вернуться в каталог

STARLINK-31189

АктивенСвязьVLEO
NORAD 58787·PAYLOAD·🇺🇸 United States

Запущен Jan 15, 2024 с Cape Canaveral Space Force Station

Loading…

Ближайшие Пролёты (ближайшие 24 часа)

TLE

СвежийSource: CelesTrak SupGP

Эпоха: Sep 15, 2026, 03:28 UTC

1 58787C 24012A   26258.14493056  .00006795  00000+0  24613-3 0  2582
2 58787  43.0001 174.9443 0001408 269.7546 136.5766 15.27571418    15

Отслеживайте STARLINK-31189 в реальном времени с AllMySat

Download on the App Store